Starlink 34452

operational
NORAD ID: 64425 Int'l Des: 2025-129 Owner: SPXS Country: US Constellation: starlink
LEOCIRCULAR

About Starlink 34452

Description loading...

Live Position

Loading 3D Globe...

Upcoming Passes

Altitude History

Altitude vs Time

uPlot chart will show altitude changes over time

Two-Line Element Set

1 64425U 25129P 26102.49628748 .00001567 00000-0 13907-3 0 9991
2 64425 70.0019 349.1199 0002625 269.5263 90.5595 14.98332366 46350
Epoch: Apr 12, 2026 • Age: 4 hours

Current Status

Altitude 575.5 km
Velocity 7.57 km/s
Sub-Earth Point -7.60°S, 91.32°E
Launch Date Jun 17, 2025
Age 0.8 years
Type internet

Technical Details

Classification Payload
Mass 575.00 kg
Dry Mass 530.00 kg
Total Mass 575.00 kg
Length 0.30 m
Diameter 4.10 m
Span 29.00 m
Shape Box + pan
Manufacturer SPXS
Bus Type Starlink V2MO
Phase Status In Orbit
Owner/State SPXS/US

Large Constellations

Loading constellations...